Location: Unspecified
(43.4354°N, 0.0000°E)
Time: 03:56:29
(UTC+00:00)

Courier 1B - Visible Passes

Search period start: 18 June 2019 00:00
Search period end: 28 June 2019 00:00
Orbit: 963 x 1209 km, 28.3° (Epoch: 17 June)

Date Brightness Start Highest point End Pass type
(mag) Time Alt. Az. Time Alt. Az. Time Alt. Az.
18 Jun 9.1 20:11:40 10° SW 20:17:09 22° SSE 20:22:46 10° ESE visible
18 Jun 8.8 22:04:19 10° SW 22:10:24 26° S 22:11:03 25° S visible
19 Jun 8.9 21:10:42 10° SW 21:16:43 26° S 21:20:27 18° SE visible
19 Jun 9.4 23:04:27 10° WSW 23:07:19 18° SW 23:07:19 18° SW visible
20 Jun 9.0 20:17:14 10° SW 20:23:02 25° S 20:29:01 10° ESE visible
20 Jun 8.9 22:10:32 10° WSW 22:16:18 23° S 22:16:39 23° S visible
21 Jun 8.9 21:16:47 10° SW 21:22:38 24° S 21:25:56 19° SSE visible
21 Jun 9.6 23:11:22 10° SW 23:12:48 13° SW 23:12:48 13° SW visible
22 Jun 9.0 20:23:10 10° SW 20:28:58 25° S 20:34:58 10° SE visible
22 Jun 9.2 22:17:09 10° WSW 22:22:04 19° SSW 22:22:04 19° SSW visible
23 Jun 9.1 21:23:12 10° WSW 21:28:32 21° SSW 21:31:18 17° SSE visible
24 Jun 9.1 20:29:25 10° WSW 20:34:54 23° S 20:40:33 10° SE visible
24 Jun 9.6 22:24:35 10° SW 22:27:24 13° SSW 22:27:24 13° SSW visible
25 Jun 9.4 21:30:08 10° SW 21:34:23 16° SSW 21:36:39 14° S visible
26 Jun 9.3 20:36:03 10° SW 20:40:48 18° SSW 20:45:41 10° SSE visible
27 Jun 9.7 21:38:56 10° SW 21:40:14 10° SSW 21:41:32 10° SSW visible
